Eastsound, WA

5:22 PM PST on December 03, 2016 (GMT -0800)
Orcas Island

Weather History for KORS - March, 2012

Change the Weather History Date:

Tuesday, March 13, 2012

  Actual Average (KBLI) Record (KBLI)
Temperature  
Mean Temperature 36 °F 44 °F  
Max Temperature 41 °F 52 °F 67 °F (1992)
Min Temperature 32 °F 36 °F 24 °F (1962)
Degree Days  
Heating Degree Days 28 21  
Month to date heating degree days 287  
Cooling Degree Days 0 0  
Month to date cooling degree days 0  
Year to date cooling degree days 0  
Moisture  
Dew Point 32 °F    
Average Humidity 85    
Maximum Humidity 100    
Minimum Humidity 70    
Precipitation  
Precipitation 0.03 in 0.09 in 0.70 in (2000)
Month to date precipitation 1.31  
Year to date precipitation 9.00  
Sea Level Pressure  
Sea Level Pressure 29.51 in    
Wind  
Wind Speed 6 mph (SSW)    
Max Wind Speed 14 mph    
Max Gust Speed 20 mph    
Visibility 9 miles    
Events Rain , Snow    
T = Trace of Precipitation, MM = Missing Value Source: NWS Daily Summary

Daily Weather History Graph

Daily Weather History Graph

Search for Another Location

Airport or City:

Trip Planner

Search our weather history database for the weather conditions in past years. The results will help you decide how hot, cold, wet, or windy it might be!

Date:

Astronomy

Mar. 13, 2012 Rise Set
Actual Time 7:27 AM PDT 7:14 PM PDT
Civil Twilight 6:56 AM PDT 7:46 PM PDT
Nautical Twilight 6:19 AM PDT 8:22 PM PDT
Astronomical Twilight 5:42 AM PDT 9:00 PM PDT
Moon 1:24 AM PDT (3/13) 10:12 AM PDT (3/13)
Length of Visible Light 12h 49m
Length of Day
11h 47m
Waning Gibbous, 64% of the Moon is Illuminated
Mar 13
Waning Gibbous
Mar 14
Last Quarter
Mar 22
New
Mar 30
First Quarter
Apr 6
Full

Hourly Weather History & Observations

Time (PDT) Temp. Windchill Dew Point Humidity Pressure Visibility Wind Dir Wind Speed Gust Speed Precip Events Conditions
12:15 AM 37.4 °F 32.8 °F 33.8 °F 87% 29.31 in 9.0 mi South 5.8 mph - N/A Rain Light Rain
12:35 AM 37.4 °F 32.1 °F 33.8 °F 87% 29.31 in 10.0 mi SSW 6.9 mph - N/A   Scattered Clouds
12:55 AM 37.4 °F 30.8 °F 32.0 °F 81% 29.32 in 10.0 mi SSW 9.2 mph - N/A Rain Light Rain
1:15 AM 37.4 °F 28.9 °F 32.0 °F 81% 29.33 in 8.0 mi SSW 13.8 mph 18.4 mph N/A Rain Light Rain
1:35 AM 35.6 °F 29.2 °F 32.0 °F 87% 29.34 in 7.0 mi South 8.1 mph - N/A Rain Light Rain
1:55 AM 35.6 °F 30.7 °F 32.0 °F 87% 29.34 in 9.0 mi South 5.8 mph - N/A Rain Light Rain
2:15 AM 35.6 °F 29.2 °F 32.0 °F 87% 29.34 in 10.0 mi South 8.1 mph - N/A Rain Light Rain
2:35 AM 35.6 °F 29.9 °F 32.0 °F 87% 29.34 in 10.0 mi South 6.9 mph - N/A   Partly Cloudy
2:55 AM 35.6 °F 29.9 °F 32.0 °F 87% 29.34 in 10.0 mi South 6.9 mph - N/A   Clear
3:15 AM 35.6 °F 29.2 °F 32.0 °F 87% 29.34 in 10.0 mi South 8.1 mph - N/A   Clear
3:35 AM 37.4 °F 30.8 °F 32.0 °F 81% 29.35 in 10.0 mi South 9.2 mph - N/A   Clear
3:55 AM 37.4 °F 32.8 °F 30.2 °F 75% 29.35 in 10.0 mi SSW 5.8 mph - N/A   Clear
4:15 AM 37.4 °F 32.8 °F 30.2 °F 75% 29.37 in 10.0 mi South 5.8 mph - N/A   Clear
4:35 AM 37.4 °F 34.9 °F 30.2 °F 75% 29.38 in 10.0 mi SSW 3.5 mph - N/A   Clear
4:55 AM 35.6 °F - 32.0 °F 87% 29.39 in 10.0 mi Calm Calm - N/A   Partly Cloudy
5:15 AM 33.8 °F - 32.0 °F 93% 29.40 in 10.0 mi Calm Calm - N/A   Partly Cloudy
5:35 AM 32.0 °F 28.7 °F 32.0 °F 100% 29.41 in 10.0 mi SSW 3.5 mph - N/A   Partly Cloudy
5:55 AM 32.0 °F - 32.0 °F 100% 29.42 in 10.0 mi Calm Calm - N/A   Clear
6:15 AM 32.0 °F - 30.2 °F 93% 29.42 in 10.0 mi Calm Calm - N/A   Clear
6:35 AM 32.0 °F - 32.0 °F 100% 29.43 in 10.0 mi Calm Calm - N/A   Clear
6:55 AM 32.0 °F 28.7 °F 30.2 °F 93% 29.44 in 10.0 mi South 3.5 mph - N/A   Clear
7:15 AM 32.0 °F - 30.2 °F 93% 29.44 in 10.0 mi Calm Calm - N/A   Partly Cloudy
8:15 AM 35.6 °F 29.9 °F 32.0 °F 87% 29.46 in 10.0 mi South 6.9 mph - N/A   Clear
8:35 AM 35.6 °F 30.7 °F 32.0 °F 87% 29.47 in 10.0 mi SSW 5.8 mph - N/A   Partly Cloudy
8:55 AM 35.6 °F - 32.0 °F 87% 29.47 in 10.0 mi Calm Calm - N/A   Scattered Clouds
9:15 AM 35.6 °F 32.8 °F 32.0 °F 87% 29.48 in 3.0 mi South 3.5 mph - N/A Snow Light Snow
9:35 AM 33.8 °F - 32.0 °F 93% 29.49 in 9.0 mi Calm Calm - N/A Rain Light Rain
9:55 AM 33.8 °F - 32.0 °F 93% 29.50 in 7.0 mi Calm Calm - N/A Rain Light Rain
10:15 AM 33.8 °F - 32.0 °F 93% 29.51 in 1.8 mi Calm Calm - 0.01 in Snow Light Snow
10:35 AM 32.0 °F - 32.0 °F 100% 29.52 in 1.2 mi Calm Calm - 0.02 in Snow Light Snow
10:55 AM 32.0 °F - 32.0 °F 100% 29.52 in 0.8 mi Calm Calm - 0.02 in Snow Light Snow
11:15 AM 32.0 °F - 32.0 °F 100% 29.52 in 2.5 mi Calm Calm - N/A Rain Light Rain
11:35 AM 35.6 °F 28.6 °F 33.8 °F 93% 29.53 in 9.0 mi SSW 9.2 mph - 0.01 in Rain Light Rain
12:15 PM 39.2 °F 32.0 °F 35.6 °F 87% 29.55 in 10.0 mi SSW 11.5 mph - N/A   Scattered Clouds
12:55 PM 39.2 °F 34.2 °F 33.8 °F 81% 29.56 in 5.0 mi WSW 6.9 mph - N/A Rain Light Rain
1:15 PM 37.4 °F 32.1 °F 35.6 °F 93% 29.57 in 2.0 mi South 6.9 mph - N/A Rain Light Rain
1:35 PM 37.4 °F 31.4 °F 35.6 °F 93% 29.57 in 5.0 mi South 8.1 mph - N/A Rain Light Rain
1:55 PM 39.2 °F 33.0 °F 35.6 °F 87% 29.58 in 10.0 mi South 9.2 mph - N/A   Scattered Clouds
2:15 PM 41.0 °F 35.2 °F 35.6 °F 81% 29.59 in 10.0 mi South 9.2 mph - N/A   Partly Cloudy
3:15 PM 41.0 °F 35.2 °F 35.6 °F 81% 29.64 in 10.0 mi SSW 9.2 mph - N/A   Partly Cloudy
3:35 PM 41.0 °F 35.8 °F 35.6 °F 81% 29.65 in 10.0 mi South 8.1 mph - N/A   Clear
3:55 PM 41.0 °F 36.4 °F 35.6 °F 81% 29.66 in 10.0 mi South 6.9 mph - N/A   Scattered Clouds
4:15 PM 39.2 °F 33.0 °F 32.0 °F 75% 29.68 in 10.0 mi WSW 9.2 mph 16.1 mph N/A   Partly Cloudy
4:35 PM 41.0 °F 35.2 °F 32.0 °F 70% 29.69 in 10.0 mi SSW 9.2 mph 17.3 mph N/A   Clear
4:55 PM 41.0 °F 35.8 °F 32.0 °F 70% 29.70 in 10.0 mi South 8.1 mph - N/A   Clear
5:15 PM 41.0 °F 34.3 °F 32.0 °F 70% 29.71 in 10.0 mi SSW 11.5 mph 19.6 mph N/A   Partly Cloudy
5:35 PM 39.2 °F 32.5 °F 32.0 °F 75% 29.71 in 10.0 mi SSW 10.4 mph 18.4 mph N/A   Partly Cloudy
5:55 PM 39.2 °F 33.6 °F 32.0 °F 75% 29.73 in 10.0 mi SSW 8.1 mph - N/A   Clear
6:15 PM 39.2 °F 33.6 °F 32.0 °F 75% 29.74 in 10.0 mi SSW 8.1 mph - N/A   Partly Cloudy
6:35 PM 39.2 °F 34.2 °F 32.0 °F 75% 29.74 in 10.0 mi SSW 6.9 mph - N/A   Partly Cloudy
6:55 PM 37.4 °F 31.4 °F 32.0 °F 81% 29.74 in 10.0 mi SSW 8.1 mph - N/A   Partly Cloudy
7:15 PM 37.4 °F 29.8 °F 32.0 °F 81% 29.75 in 10.0 mi SSW 11.5 mph - N/A   Partly Cloudy
7:35 PM 37.4 °F 32.8 °F 30.2 °F 75% 29.76 in 10.0 mi SSW 5.8 mph - N/A   Clear
7:55 PM 37.4 °F 32.8 °F 32.0 °F 81% 29.77 in 10.0 mi SSW 5.8 mph - N/A   Clear
8:15 PM 37.4 °F 32.1 °F 32.0 °F 81% 29.78 in 10.0 mi SSW 6.9 mph - N/A   Clear
8:55 PM 37.4 °F 32.8 °F 32.0 °F 81% 29.79 in 10.0 mi SSW 5.8 mph - N/A   Clear
9:15 PM 37.4 °F 33.8 °F 32.0 °F 81% 29.80 in 10.0 mi South 4.6 mph - N/A   Clear
9:35 PM 37.4 °F 32.8 °F 32.0 °F 81% 29.80 in 10.0 mi SSW 5.8 mph - N/A   Clear
9:55 PM 35.6 °F 31.7 °F 32.0 °F 87% 29.81 in 10.0 mi SSW 4.6 mph - N/A   Clear
10:15 PM 35.6 °F 31.7 °F 32.0 °F 87% 29.82 in 10.0 mi South 4.6 mph - N/A   Clear
10:35 PM 35.6 °F 32.8 °F 32.0 °F 87% 29.82 in 10.0 mi SE 3.5 mph - N/A   Clear
10:55 PM 35.6 °F - 32.0 °F 87% 29.82 in 10.0 mi Calm Calm - N/A   Clear
11:15 PM 35.6 °F - 32.0 °F 87% 29.82 in 10.0 mi North - - N/A   Clear
11:35 PM 37.4 °F 32.1 °F 32.0 °F 81% 29.82 in 10.0 mi South 6.9 mph - N/A   Clear
11:55 PM 37.4 °F 31.4 °F 32.0 °F 81% 29.83 in 10.0 mi South 8.1 mph - N/A   Clear